EW9826 Weather Reports


time (UTC)temp
C
wind
direction
speed
KPH
gust
KPH
rain 1hr
cm
rain 24hr
cm
rain mn
cm
humidity
%
barometer
mb
20260901095052 19 273 9.7 19.3 0.00 0.64 0.00 70 1020.0
20260901094552 18 283 11.3 19.3 0.00 0.64 0.00 71 1020.0
20260901093052 19 308 8.0 20.9 0.00 0.64 0.00 71 1019.9
20260901092552 19 286 12.9 22.5 0.00 0.64 0.00 70 1019.9
20260901092052 19 307 9.7 19.3 0.00 0.64 0.00 70 1019.9
20260901091551 19 255 9.7 22.5 0.00 0.64 0.00 70 1019.8
20260901091052 19 303 14.5 27.4 0.00 0.64 0.00 70 1019.8
20260901081052 18 295 11.3 20.9 0.00 0.64 0.00 73 1019.4
20260901073052 18 312 8.0 19.3 0.00 0.69 0.00 79 1018.9
20260901072551 18 298 8.0 14.5 0.00 0.69 0.00 79 1018.9
20260901072053 18 291 4.8 12.9 0.00 0.69 0.00 81 1018.8
20260901071551 18 286 6.4 11.3 0.00 0.69 0.00 81 1018.8
20260901071053 17 271 4.8 12.9 0.00 0.69 0.00 82 1018.7
20260901070051 17 299 3.2 4.8 0.00 0.69 0.00 86 1018.5
20260901065052 17 299 1.6 4.8 0.00 0.69 0.00 87 1018.4
20260901064552 17 299 3.2 4.8 0.00 0.69 0.00 87 1018.4
20260901063053 17 299 1.6 8.0 0.00 0.71 0.00 89 1018.4
20260901062551 16 299 1.6 4.8 0.00 0.71 0.00 90 1018.4
20260901060051 16 299 0.0 3.2 0.00 0.71 0.00 92 1018.2
20260901055052 16 299 0.0 4.8 0.00 0.71 0.00 93 1018.2
20260901054551 16 299 3.2 4.8 0.00 0.71 0.00 93 1018.0
20260901054052 16 299 3.2 4.8 0.00 0.74 0.00 93 1017.9
20260901053551 16 299 1.6 4.8 0.00 0.79 0.00 93 1017.9
20260901052052 16 299 1.6 3.2 0.00 0.81 0.00 93 1017.8
20260901051552 16 299 0.0 0.0 0.00 0.81 0.00 93 1017.7
20260901051053 16 299 1.6 3.2 0.00 0.81 0.00 93 1017.5
20260901050051 16 299 0.0 0.0 0.00 0.81 0.00 93 1017.4
20260901045551 16 299 1.6 4.8 0.00 0.81 0.00 93 1017.4
20260901043052 16 299 0.0 0.0 0.00 0.81 0.00 94 1017.4
20260901042551 16 299 0.0 0.0 0.00 0.81 0.00 94 1017.4
20260901042052 16 299 0.0 0.0 0.00 0.81 0.00 94 1017.3
20260901040052 16 299 0.0 0.0 0.00 0.81 0.00 94 1017.1
20260901034052 16 299 0.0 3.2 0.00 0.81 0.00 94 1017.0
20260901033552 16 299 0.0 3.2 0.00 0.81 0.00 94 1017.0
20260901030051 16 299 0.0 3.2 0.00 0.81 0.00 95 1016.9
20260901025551 16 299 1.6 4.8 0.00 0.81 0.00 95 1016.9
20260901024552 16 299 1.6 3.2 0.00 0.81 0.00 94 1016.9
20260901024052 16 299 0.0 3.2 0.00 0.81 0.00 94 1016.8
20260901023551 16 299 0.0 3.2 0.00 0.81 0.00 94 1016.8
20260901023052 16 299 1.6 3.2 0.00 0.81 0.00 94 1016.8
20260901022552 16 299 0.0 1.6 0.00 0.81 0.00 94 1016.8
20260901020051 16 299 0.0 1.6 0.00 0.81 0.00 94 1016.8
20260901015551 16 299 1.6 3.2 0.00 0.81 0.00 94 1016.8
20260901010051 15 299 1.6 3.2 0.00 0.81 0.00 94 1016.6
20260901005551 15 299 1.6 4.8 0.00 0.81 0.00 94 1016.7
20260901005052 15 299 3.2 4.8 0.00 0.81 0.00 93 1016.7
20260901004551 15 299 3.2 4.8 0.00 0.81 0.00 93 1016.6
20260901004052 15 300 1.6 4.8 0.00 0.81 0.00 93 1016.7
20260901003551 15 300 3.2 4.8 0.00 0.81 0.00 93 1016.6
20260901003052 15 300 3.2 4.8 0.00 0.81 0.00 93 1016.6
20260901000051 16 300 1.6 3.2 0.00 0.81 0.00 93 1016.4
20260831235551 16 300 0.0 3.2 0.00 0.81 0.00 93 1016.3
20260831233551 16 300 3.2 4.8 0.00 0.81 0.00 93 1016.3
20260831232551 16 300 3.2 4.8 0.00 0.84 0.00 93 1016.3
20260831232051 16 301 3.2 4.8 0.00 0.84 0.00 93 1016.3
20260831225051 16 304 0.0 3.2 0.03 0.84 0.00 92 1016.2
20260831224551 16 304 1.6 4.8 0.03 0.84 0.00 92 1016.1
20260831223551 16 304 3.2 4.8 0.08 0.84 0.00 92 1015.9
20260831223051 16 304 0.0 0.0 0.10 0.84 0.00 91 1015.9
20260831222551 16 304 0.0 1.6 0.23 0.84 0.00 91 1015.8
20260831222052 16 304 0.0 3.2 0.36 0.84 0.00 91 1015.8
20260831221550 16 304 0.0 1.6 0.36 0.84 0.00 91 1015.8
20260831221053 16 304 1.6 4.8 0.36 0.84 0.00 90 1015.8
20260831220051 16 304 1.6 3.2 0.36 0.84 0.00 90 1015.8
20260831214551 17 304 0.0 3.2 0.33 0.81 0.81 88 1015.8
20260831213051 17 293 6.4 14.5 0.28 0.76 0.76 86 1016.2
20260831212551 18 315 17.7 35.4 0.23 0.71 0.71 84 1016.3
20260831212051 18 248 3.2 4.8 0.00 0.48 0.48 84 1015.6
20260831211551 18 248 3.2 4.8 0.00 0.48 0.48 83 1015.3
20260831211051 18 248 1.6 4.8 0.00 0.48 0.48 83 1015.3
20260831205550 18 248 1.6 4.8 0.00 0.48 0.48 81 1015.3
20260831204051 18 248 0.0 3.2 0.00 0.58 0.48 80 1015.2
20260831203551 18 248 1.6 4.8 0.00 0.58 0.48 79 1015.2
20260831203052 19 248 1.6 4.8 0.00 0.61 0.48 79 1015.2
20260831202051 19 249 4.8 8.0 0.00 0.84 0.48 78 1015.1
20260831201551 19 250 3.2 4.8 0.00 1.12 0.48 78 1015.0
20260831201052 19 250 1.6 9.7 0.00 1.14 0.48 78 1014.9
20260831200051 19 250 3.2 8.0 0.00 1.14 0.48 78 1014.8
20260831195551 20 250 4.8 12.9 0.00 1.14 0.48 78 1014.8
20260831195051 19 250 4.8 12.9 0.00 1.14 0.48 78 1014.8
20260831194550 19 250 4.8 9.7 0.00 1.14 0.48 78 1014.8
20260831194051 19 246 4.8 12.9 0.00 1.14 0.48 78 1014.8
20260831193550 19 247 4.8 9.7 0.00 1.14 0.48 78 1014.8
20260831192051 19 247 3.2 11.3 0.00 1.14 0.48 77 1014.6
20260831191550 19 236 4.8 16.1 0.00 1.14 0.48 77 1014.6
20260831191051 19 261 4.8 12.9 0.00 1.14 0.48 77 1014.4
20260831190050 20 249 4.8 11.3 0.00 1.14 0.48 76 1014.3
20260831185550 20 264 8.0 11.3 0.00 1.14 0.48 76 1014.3
20260831184051 20 259 6.4 14.5 0.00 1.14 0.48 76 1014.2
20260831183550 20 297 4.8 16.1 0.00 1.14 0.48 75 1014.0
20260831182550 20 243 4.8 20.9 0.00 1.14 0.48 75 1013.8
20260831182051 20 256 6.4 24.1 0.00 1.14 0.48 74 1013.8
20260831175051 20 253 9.7 20.9 0.00 1.14 0.48 74 1013.4
20260831174550 20 270 9.7 20.9 0.00 1.14 0.48 74 1013.3
20260831171551 20 287 8.0 24.1 0.00 1.14 0.48 72 1013.0
20260831171050 20 273 11.3 29.0 0.00 1.14 0.48 72 1012.8
20260831170050 20 261 9.7 20.9 0.00 1.14 0.48 73 1012.7
20260831165550 20 273 12.9 24.1 0.00 1.14 0.48 72 1012.7
20260831165050 20 271 11.3 20.9 0.00 1.14 0.48 72 1012.7
20260831164550 20 266 6.4 20.9 0.00 1.14 0.48 72 1012.7
20260831162550 20 281 14.5 24.1 0.00 1.14 0.48 73 1012.5
20260831162050 20 288 16.1 27.4 0.00 1.14 0.48 74 1012.5
20260831160050 20 293 11.3 22.5 0.00 1.14 0.48 75 1012.2
20260831155549 20 288 8.0 19.3 0.00 1.14 0.48 75 1012.2
20260831151550 20 288 12.9 32.2 0.00 1.14 0.48 73 1011.9
20260831151051 20 277 11.3 35.4 0.00 1.14 0.48 73 1011.8
20260831150050 20 246 16.1 32.2 0.00 1.14 0.48 72 1011.7
20260831145550 20 290 11.3 32.2 0.00 1.14 0.48 72 1011.7
20260831143051 19 297 9.7 19.3 0.00 1.14 0.48 77 1011.3
20260831142550 18 269 8.0 16.1 0.00 1.14 0.48 78 1011.2
20260831142050 18 289 11.3 25.7 0.00 1.14 0.48 78 1011.2
20260831141549 18 277 9.7 20.9 0.00 1.14 0.48 78 1011.1
20260831141051 18 294 9.7 22.5 0.00 1.14 0.48 79 1011.1
20260831140050 18 250 11.3 22.5 0.00 1.14 0.48 79 1010.8
20260831135550 18 257 11.3 24.1 0.00 1.14 0.48 78 1010.8
20260831134051 18 278 16.1 32.2 0.00 1.14 0.48 75 1010.6
20260831132550 19 271 12.9 25.7 0.00 1.14 0.48 73 1010.3
20260831132051 19 279 12.9 29.0 0.00 1.14 0.48 73 1010.3
20260831131549 19 279 12.9 37.0 0.00 1.14 0.48 73 1010.2
20260831131050 19 280 16.1 37.0 0.00 1.14 0.48 73 1010.1
20260831124550 19 248 11.3 27.4 0.00 1.14 0.48 73 1009.8
20260831124051 19 261 9.7 35.4 0.00 1.14 0.48 75 1009.7
20260831122051 19 259 16.1 35.4 0.13 1.14 0.48 75 1009.5
20260831121549 19 269 12.9 24.1 0.15 1.14 0.48 80 1009.4
20260831121051 18 252 11.3 24.1 0.18 1.14 0.48 83 1009.2
20260831120049 17 270 11.3 22.5 0.20 1.14 0.48 88 1009.1
20260831115549 17 255 11.3 27.4 0.20 1.14 0.48 90 1009.1
20260831115050 17 229 9.7 16.1 0.20 1.14 0.48 90 1009.1
20260831114550 16 233 6.4 14.5 0.20 1.14 0.48 90 1009.1
20260831114050 16 246 8.0 14.5 0.23 1.14 0.48 90 1009.1
20260831112050 16 252 16.1 25.7 0.10 1.02 0.36 88 1009.1
20260831111550 16 247 11.3 27.4 0.08 0.99 0.33 87 1009.0
20260831111050 16 254 12.9 27.4 0.10 0.97 0.30 87 1009.0
20260831110050 17 238 16.1 32.2 0.08 0.94 0.28 85 1008.9
20260831105549 17 263 9.7 27.4 0.08 0.94 0.28 84 1008.8
20260831105050 17 255 14.5 27.4 0.08 0.94 0.28 83 1008.7
20260831104549 17 259 11.3 22.5 0.08 0.94 0.28 83 1008.6
20260831104050 17 231 8.0 22.5 0.05 0.91 0.25 86 1008.5
20260831103550 17 279 11.3 22.5 0.05 0.91 0.25 87 1008.4
20260831102050 17 252 9.7 24.1 0.05 0.91 0.25 84 1008.1
20260831101549 17 253 12.9 24.1 0.05 0.89 0.23 82 1008.2
20260831101050 17 298 11.3 32.2 0.00 0.86 0.20 79 1008.1
20260831095550 19 227 11.3 27.4 0.00 0.91 0.20 77 1007.9